{"data":{"norad_id":52459,"epoch":"2026-09-20T00:24:05.727744Z","epoch_age_seconds":101407,"freshness":"FRESH","line1":"1 52459U 22049J   26263.01673296  .00000247  00000+0  18852-4 0  9995","line2":"2 52459  53.1593 256.1985 0001154  83.8300 276.2834 15.33548480241721","mean_motion":15.3354848,"eccentricity":0.0001154,"inclination_deg":53.1593,"raan_deg":256.1985,"arg_perigee_deg":83.83,"mean_anomaly_deg":276.2834,"bstar":1.8852e-5,"rev_number":24172,"period_min":93.899868101985,"perigee_km":464.44558295096,"apogee_km":466.02503327967,"semimajor_km":6843.3723081153,"source":"CELESTRAK","updated_at":"2026-09-20T09:00:40.033113Z"}}